Weather History for Willimantic, CT

Change the Weather History Date:

Wednesday, May 14, 2014

  Actual Average Record
Temperature  
Mean Temperature 58 °F -  
Max Temperature 72 °F 69 °F 83 °F (1970)
Min Temperature 46 °F 43 °F 29 °F (1958)
Degree Days  
Heating Degree Days 6    
Growing Degree Days 8 (Base 50)    
Moisture  
Dew Point 43 °F    
Average Humidity 62    
Maximum Humidity 77    
Minimum Humidity 30    
Precipitation  
Precipitation 0.00 in - - ()
Sea Level Pressure  
Sea Level Pressure 30.30 in    
Wind  
Wind Speed 4 mph (South)    
Max Wind Speed 12 mph    
Max Gust Speed -    
Visibility 10 miles    
Events      
Averages and records for this station are not official NWS values.
T = Trace of Precipitation, MM = Missing Value Source: NWS Daily Summary

Daily Weather History Graph

Daily Weather History Graph

Search for Another Location

Airport:

Trip Planner

Search our weather history database for the weather conditions in past years. The results will help you decide how hot, cold, wet, or windy it might be!

Date:

Astronomy

May. 14, 2014 Rise Set
Actual Time 5:30 AM EDT 8:00 PM EDT
Civil Twilight 4:58 AM EDT 8:32 PM EDT
Nautical Twilight 4:19 AM EDT 9:12 PM EDT
Astronomical Twilight 3:34 AM EDT 9:56 PM EDT
Moon 8:02 PM EDT (5/14) 5:27 AM EDT (5/14)
Length of Visible Light 15h 34m
Length of Day
14h 30m
Full, 100% of the Moon is Illuminated
May 14
Full
May 14
Full
May 21
Last Quarter
May 28
New
Jun 5
First Quarter

Hourly Weather History & Observations

Time (EDT) Temp. Dew Point Humidity Pressure Visibility Wind Dir Wind Speed Gust Speed Precip Events Conditions
12:52 AM 48.9 °F 37.9 °F 66% 30.31 in 10.0 mi ENE 3.5 mph - N/A   Clear
1:52 AM 48.0 °F 39.0 °F 71% 30.30 in 10.0 mi ENE 3.5 mph - N/A   Clear
2:52 AM 46.0 °F 39.0 °F 76% 30.31 in 10.0 mi Calm Calm - N/A   Clear
3:52 AM 46.0 °F 39.0 °F 76% 30.30 in 10.0 mi Calm Calm - N/A   Scattered Clouds
4:52 AM 46.9 °F 39.9 °F 77% 30.31 in 10.0 mi North 3.5 mph - N/A   Overcast
5:52 AM 46.9 °F 39.9 °F 77% 30.33 in 10.0 mi NNW 3.5 mph - N/A   Overcast
6:10 AM 46.9 °F 39.9 °F 77% 30.33 in 10.0 mi NNW 3.5 mph - N/A   Overcast
6:47 AM 48.2 °F 39.2 °F 71% 30.32 in 10.0 mi Calm Calm - N/A   Overcast
6:52 AM 48.0 °F 39.0 °F 71% 30.32 in 10.0 mi Calm Calm - N/A   Overcast
7:52 AM 51.1 °F 42.1 °F 71% 30.32 in 10.0 mi Calm Calm - N/A   Mostly Cloudy
8:52 AM 53.1 °F 41.0 °F 64% 30.31 in 10.0 mi SE 4.6 mph - N/A   Partly Cloudy
9:52 AM 57.9 °F 41.0 °F 53% 30.30 in 10.0 mi SE 5.8 mph - N/A   Partly Cloudy
11:52 AM 66.9 °F 41.0 °F 39% 30.30 in 10.0 mi SW 8.1 mph - N/A   Clear
12:52 PM 69.1 °F 36.0 °F 30% 30.29 in 10.0 mi South 9.2 mph - N/A   Overcast
1:52 PM 70.0 °F 39.9 °F 33% 30.28 in 10.0 mi South 6.9 mph - N/A   Clear
2:52 PM 71.1 °F 46.9 °F 42% 30.27 in 10.0 mi South 9.2 mph - N/A   Partly Cloudy
3:52 PM 69.1 °F 52.0 °F 54% 30.26 in 10.0 mi SSE 9.2 mph - N/A   Partly Cloudy
5:52 PM 66.0 °F 54.0 °F 65% 30.27 in 10.0 mi South 11.5 mph - N/A   Overcast
6:05 PM 64.9 °F 54.0 °F 68% 30.26 in 10.0 mi South 10.4 mph - N/A   Overcast
6:52 PM 64.0 °F 53.1 °F 67% 30.28 in 10.0 mi South 9.2 mph - N/A   Overcast
7:52 PM 63.0 °F 53.1 °F 70% 30.28 in 10.0 mi SSW 4.6 mph - N/A   Overcast
8:52 PM 63.0 °F 45.0 °F 52% 30.29 in 10.0 mi South 5.8 mph - N/A   Overcast
9:52 PM 61.0 °F 42.1 °F 50% 30.30 in 10.0 mi SSW 3.5 mph - N/A   Overcast
11:52 PM 60.1 °F 45.0 °F 57% 30.30 in 10.0 mi Calm Calm - N/A   Overcast